[[{"header":{"parameterUnit":"m.s-1","parameterCategory":1,"la1":30.2991,"la2":30.254,"lo1":-89.0895,"lo2":-89.0444,"dy":0.0017,"dx":0.0017,"nx":28,"ny":28,"refTime":"2025-07-30T21:00:00:Z","depth":0,"parameterNumber":2,"parameterNumberName":"U-component_of_WINDS"},"data":[0,0,0,0,0,0,0,0,0,0,0,0,0,0,0,0,0,0,0,0,0,0,0,0,0,0,0,0,0,0,0,0,0,0,0,0,0,0,0,0,0,0,0,0,0,0,0,0,0,0,0,0,0,0,0,0,0,0,2.299,2.2991,0,2.3086,2.3087,2.3088,2.3082,2.3081,2.308,2.3078,2.3183,2.3187,2.3191,0,0,0,0,0,0,0,0,0,0,0,0,0,2.2809,2.2812,2.299,2.2991,2.2992,2.3086,2.3087,2.3088,2.3083,2.3081,2.3079,2.3078,2.3181,2.3186,2.3191,0,0,0,0,0,0,0,0,0,0,0,0,0,2.2895,2.2813,2.299,2.3001,2.3003,2.3085,2.3087,2.3089,2.3083,2.3081,2.3079,2.3077,2.318,2.3186,2.3192,2.3272,0,0,2.321,2.3213,0,0,0,0,0,0,0,0,2.289,2.2901,2.2998,2.3,2.3002,2.307,2.3061,2.315,2.3083,2.3053,2.3078,2.3076,2.3147,2.3156,2.3179,2.3277,2.3281,2.3211,2.3215,2.3217,2.3219,0,0,0,0,0,0,0,2.2884,2.2897,2.3028,2.2999,2.3002,2.3003,2.3013,2.3078,2.3111,2.3055,2.3055,2.3066,2.3148,2.3173,2.3181,2.3283,2.3211,2.3216,2.322,2.3222,2.3453,2.3455,0,0,0,0,0,0,2.2875,2.2892,2.3025,2.3031,2.2939,2.3008,2.3019,2.305,2.311,2.3117,2.3068,2.3065,2.3163,2.3174,2.3185,2.3283,2.3217,2.3223,2.3227,2.345,2.3453,2.3456,0,0,0,0,0,0,2.2871,2.2886,2.3021,2.2962,2.2979,2.3013,2.3049,2.3053,2.3078,2.3119,2.3126,2.3086,2.3162,2.3176,2.325,2.3287,2.3226,2.3231,2.3447,2.3451,2.3455,2.348,0,0,0,0,0,0,2.2866,2.2885,2.2914,2.2962,2.2982,2.3083,2.3051,2.3057,2.3088,2.3086,2.3139,2.3146,2.3161,2.3241,2.3256,2.3294,2.3236,2.3444,2.3449,2.3453,2.3476,2.3484,2.3491,0,0,0,0,0,2.2859,2.2919,2.2916,2.2932,2.3019,2.3085,2.3096,2.3112,2.3091,2.3121,2.3148,2.3144,2.328,2.3248,2.3266,2.3306,2.3442,2.3448,2.3453,2.3473,2.3482,2.3491,0,0,0,0,0,0,2.2876,2.2925,2.2922,2.2999,2.3037,2.3084,2.3123,2.3121,2.3168,2.3165,2.3184,2.3196,2.327,2.3296,2.3259,2.3387,2.3359,2.3368,2.3368,2.3377,2.3385,2.3377,2.3241,0,0,0,0,0,2.2888,2.2936,2.2977,2.3041,2.306,2.3088,2.3117,2.3126,2.3168,2.3184,2.3217,2.3259,2.3312,2.3346,2.3396,2.348,2.3492,2.3516,2.3523,2.3529,2.3537,2.3584,2.3596,2.3474,2.3474,2.3474,0,0,2.2915,2.2947,2.2977,2.3045,2.3076,2.3127,2.3102,2.3157,2.3195,2.3194,2.3265,2.329,2.3339,2.3418,2.3455,2.3442,2.3574,2.3536,2.3541,2.3545,2.3591,2.3603,2.3613,2.3478,2.3477,2.3476,0,0,2.2989,2.3018,2.3074,2.3105,2.3152,2.317,2.3184,2.3231,2.3247,2.3318,2.3318,2.3366,2.3455,2.349,2.352,2.3609,2.3607,2.3625,2.3664,2.3709,2.3719,2.3728,2.376,2.3771,2.3632,2.3633,2.3633,0,2.3016,2.3091,2.3104,2.3159,2.319,2.3188,2.3247,2.3278,2.3339,2.3362,2.3346,2.3458,2.3491,2.3579,2.36,2.3624,2.3642,2.3619,2.3716,2.3725,2.3733,2.3764,2.3776,2.3634,2.3634,2.3634,2.3634,0,2.3123,2.3175,2.3215,2.3272,2.3308,2.3365,2.3388,2.3423,2.3429,2.345,2.3524,2.3563,2.3622,2.3643,2.365,2.3733,2.3723,2.3712,2.3683,2.3746,2.3776,2.3788,2.3637,2.3636,2.3636,2.3635,0,0,2.321,2.3274,2.3288,2.3315,2.3367,2.3408,2.3466,2.3521,2.3551,2.3595,2.3644,2.3721,2.371,2.3744,2.3755,2.3795,2.3864,2.3779,2.378,2.3794,2.3958,2.3967,2.398,2.3863,2.3865,2.3867,2.3955,0,2.3289,2.3389,2.3403,2.3492,2.3541,2.3541,2.3592,2.363,2.3652,2.3698,2.3723,2.3777,2.3758,2.3779,2.3819,2.3847,2.3897,2.3841,2.3911,2.3914,2.3899,2.3996,2.4005,2.4085,2.3966,2.3968,2.397,0,2.3395,2.3439,2.3532,2.3578,2.36,2.3644,2.3697,2.3741,2.3786,2.3799,2.3836,2.3842,2.3905,2.3873,2.396,2.3922,2.3952,2.397,2.3974,2.3981,2.3945,2.4006,2.4111,2.4123,2.3988,2.3986,2.3985,0,2.345,2.3533,2.3599,2.3622,2.3677,2.3709,2.3734,2.3776,2.3809,2.3856,2.3878,2.3932,2.3962,2.4005,2.4027,2.4002,2.4113,2.4083,2.4127,2.4126,2.415,2.4148,2.4262,2.4169,2.4169,2.4168,2.4168,0,2.3537,2.3595,2.3625,2.3666,2.3731,2.3747,2.3812,2.3836,2.3874,2.3922,2.3926,2.3971,2.3997,2.4046,2.4064,2.4133,2.4147,2.4161,2.4165,2.416,2.4159,2.418,2.4175,2.4172,2.4171,2.417,2.417,0,2.3609,2.3631,2.3704,2.375,2.3763,2.3809,2.385,2.3891,2.3912,2.3972,2.3987,2.4022,2.408,2.4105,2.4178,2.419,2.427,2.427,2.4254,2.4256,2.4298,2.4294,2.4429,2.4448,2.4343,2.4344,2.4344,0,2.3663,2.3707,2.3758,2.3789,2.3814,2.3864,2.3898,2.3917,2.3952,2.4006,2.4041,2.4099,2.4147,2.4241,2.4273,2.4329,2.4331,2.4375,2.4339,2.4334,2.4332,2.4329,2.4334,2.4381,2.4382,2.4383,2.4384,0,2.3758,2.3767,2.3813,2.3864,2.3903,2.3945,2.3986,2.4012,2.4038,2.4077,2.4136,2.4172,2.4246,2.4304,2.4362,2.439,2.4392,2.4394,2.4408,2.4403,2.4393,2.4399,2.4272,2.4391,2.439,2.439,2.439,2.4389,2.3823,2.3862,2.3904,2.3956,2.3989,2.4027,2.4068,2.4094,2.4142,2.4202,2.4211,2.4274,2.432,2.4397,2.4428,2.4479,2.4468,2.4487,2.4492,2.4497,2.4499,2.4384,2.449,2.449,2.4489,2.4489,2.4489,0,2.3918,2.3944,2.3992,2.4049,2.409,2.4086,2.4132,2.4168,2.4222,2.4263,2.431,2.4378,2.4435,2.4472,2.453,2.4564,2.4566,2.4578,2.4576,2.4583,2.4505,2.4488,2.4576,2.4575,2.4575,2.4575,2.4575,2.4575,2.3972,2.4038,2.4052,2.4136,2.4163,2.4223,2.4249,2.4286,2.4318,2.4394,2.444,2.4463,2.4504,2.4565,2.4617,2.4627,2.4648,2.4661,2.4671,2.4597,2.4588,2.458,2.4564,2.4666,2.4666,2.4744,2.4745,2.4745]},{"header":{"parameterUnit":"m.s-1","parameterCategory":1,"la1":30.2991,"la2":30.254,"lo1":-89.0895,"lo2":-89.0444,"dy":0.0017,"dx":0.0017,"nx":28,"ny":28,"refTime":"2025-07-30T21:00:00:Z","depth":0,"parameterNumber":3,"parameterNumberName":"V-component_of_WINDS"},"data":[0,0,0,0,0,0,0,0,0,0,0,0,0,0,0,0,0,0,0,0,0,0,0,0,0,0,0,0,0,0,0,0,0,0,0,0,0,0,0,0,0,0,0,0,0,0,0,0,0,0,0,0,0,0,0,0,0,0,3.2432,3.2432,0,3.2475,3.2476,3.2476,3.249,3.249,3.249,3.2489,3.253,3.2531,3.2532,0,0,0,0,0,0,0,0,0,0,0,0,0,3.2355,3.2356,3.2432,3.2432,3.2433,3.2475,3.2476,3.2476,3.249,3.249,3.2489,3.2489,3.2529,3.2531,3.2532,0,0,0,0,0,0,0,0,0,0,0,0,0,3.2392,3.2356,3.2431,3.2445,3.2446,3.2475,3.2476,3.2476,3.249,3.249,3.2489,3.2489,3.2529,3.2531,3.2532,3.255,0,0,3.2538,3.2539,0,0,0,0,0,0,0,0,3.239,3.2395,3.2442,3.2444,3.2446,3.2477,3.2463,3.2501,3.249,3.2473,3.2489,3.2489,3.2512,3.2515,3.2524,3.2551,3.2553,3.2538,3.2539,3.254,3.2541,0,0,0,0,0,0,0,3.2387,3.2393,3.2449,3.2443,3.2445,3.2447,3.2452,3.247,3.2493,3.2475,3.2476,3.2481,3.2513,3.2522,3.2525,3.2554,3.2538,3.254,3.2541,3.2542,3.2595,3.2596,0,0,0,0,0,0,3.2383,3.2391,3.2447,3.245,3.2417,3.2448,3.2454,3.2467,3.2493,3.2497,3.2481,3.2482,3.2519,3.2523,3.2526,3.2547,3.254,3.2542,3.2543,3.2595,3.2595,3.2596,0,0,0,0,0,0,3.2381,3.2388,3.2446,3.2421,3.2428,3.245,3.2465,3.2468,3.2477,3.2498,3.2502,3.2487,3.2519,3.2524,3.2544,3.2549,3.2543,3.2544,3.2595,3.2595,3.2596,3.259,0,0,0,0,0,0,3.2379,3.2387,3.2396,3.2421,3.2429,3.2464,3.2465,3.2469,3.2481,3.2482,3.2505,3.2508,3.2519,3.2541,3.2545,3.2551,3.2546,3.2594,3.2595,3.2595,3.2589,3.259,3.259,0,0,0,0,0,3.2376,3.2392,3.2396,3.2403,3.244,3.2464,3.2469,3.2482,3.2482,3.2489,3.2502,3.2507,3.2547,3.2543,3.2548,3.2555,3.2594,3.2595,3.2595,3.2589,3.259,3.259,0,0,0,0,0,0,3.2365,3.2395,3.24,3.2425,3.2442,3.2466,3.2476,3.2483,3.2499,3.2499,3.2514,3.2519,3.2537,3.2548,3.2542,3.2571,3.2571,3.2573,3.2564,3.2565,3.2565,3.2562,3.2547,0,0,0,0,0,3.2366,3.2384,3.2409,3.2428,3.2436,3.2455,3.2465,3.2474,3.2492,3.2499,3.2514,3.2529,3.2545,3.2556,3.2572,3.2591,3.2595,3.2598,3.2598,3.2598,3.2599,3.2609,3.261,3.2598,3.2598,3.2598,0,0,3.2367,3.2386,3.2396,3.2426,3.244,3.2457,3.2461,3.2479,3.249,3.2501,3.2521,3.2532,3.255,3.257,3.2579,3.2579,3.2604,3.2599,3.2599,3.26,3.261,3.2611,3.2612,3.2598,3.2598,3.2598,0,0,3.2377,3.2394,3.2411,3.2425,3.2447,3.2459,3.2463,3.2486,3.2495,3.2515,3.2523,3.2536,3.2564,3.2576,3.2586,3.2599,3.2604,3.2604,3.2606,3.2614,3.2615,3.2616,3.262,3.2621,3.2605,3.2605,3.2605,0,3.2376,3.2403,3.2419,3.2436,3.2448,3.2459,3.2475,3.2488,3.2513,3.252,3.252,3.2554,3.2567,3.2589,3.2592,3.26,3.2603,3.2601,3.2614,3.2615,3.2616,3.262,3.2621,3.2605,3.2605,3.2605,3.2605,0,3.2399,3.2417,3.2428,3.2454,3.2467,3.2483,3.2499,3.251,3.2517,3.2529,3.2548,3.2564,3.2583,3.2588,3.2595,3.261,3.261,3.2612,3.2611,3.2617,3.262,3.2622,3.2605,3.2605,3.2605,3.2605,0,0,3.2405,3.2438,3.2441,3.2452,3.2476,3.249,3.2506,3.2525,3.2534,3.255,3.2563,3.2585,3.2587,3.2598,3.2606,3.2614,3.2622,3.2615,3.2616,3.2615,3.2638,3.2636,3.2637,3.2625,3.2626,3.2626,3.2636,0,3.2418,3.2449,3.2462,3.2486,3.2502,3.2512,3.2526,3.2541,3.2551,3.2565,3.2576,3.2591,3.2593,3.26,3.2608,3.2619,3.2627,3.2619,3.2636,3.2636,3.2631,3.2639,3.2638,3.2647,3.2638,3.2638,3.2638,0,3.2437,3.2455,3.2481,3.2502,3.2509,3.2521,3.2539,3.2553,3.2569,3.2576,3.2588,3.2596,3.261,3.2609,3.2629,3.2623,3.263,3.2637,3.2637,3.2639,3.2637,3.2641,3.265,3.2651,3.2641,3.264,3.264,0,3.2438,3.2467,3.2487,3.2496,3.2521,3.2529,3.2539,3.2556,3.2566,3.2581,3.2588,3.2604,3.2612,3.2624,3.2635,3.2633,3.2653,3.2653,3.2658,3.2658,3.2662,3.2661,3.2672,3.2667,3.2667,3.2667,3.2667,0,3.245,3.2465,3.2487,3.2499,3.2515,3.2529,3.2544,3.2555,3.257,3.2582,3.2591,3.2602,3.2616,3.2629,3.2637,3.2652,3.2655,3.266,3.2662,3.2659,3.2659,3.2664,3.2664,3.2667,3.2667,3.2667,3.2667,0,3.2454,3.2469,3.249,3.2512,3.2518,3.2529,3.2547,3.2557,3.2568,3.2583,3.2588,3.2604,3.2619,3.2631,3.265,3.2656,3.267,3.2673,3.2665,3.2666,3.267,3.267,3.2685,3.2687,3.2681,3.2681,3.2681,0,3.2461,3.2473,3.2496,3.2506,3.2516,3.2532,3.2542,3.2556,3.2566,3.2585,3.2593,3.2609,3.2622,3.2645,3.2657,3.2672,3.2674,3.2678,3.2676,3.2673,3.2673,3.2673,3.2673,3.2678,3.2678,3.2679,3.2679,0,3.2471,3.2478,3.2494,3.2512,3.2525,3.2539,3.2554,3.256,3.2576,3.2587,3.2603,3.2613,3.2633,3.2648,3.2663,3.2672,3.2677,3.2679,3.2681,3.2678,3.2673,3.2675,3.2665,3.2679,3.2679,3.2679,3.2679,3.2679,3.2476,3.2487,3.2505,3.2521,3.2534,3.2547,3.2558,3.257,3.2584,3.2602,3.2608,3.2624,3.2639,3.266,3.2669,3.268,3.2681,3.2684,3.2684,3.2685,3.2684,3.2671,3.2683,3.2683,3.2683,3.2683,3.2683,0,3.2486,3.2498,3.2514,3.2534,3.2547,3.2552,3.2568,3.2577,3.2592,3.2605,3.2618,3.2636,3.265,3.2663,3.2678,3.2684,3.2687,3.2687,3.2687,3.2688,3.2683,3.268,3.2685,3.2685,3.2685,3.2685,3.2685,3.2685,3.2493,3.2511,3.252,3.2543,3.2554,3.2571,3.2579,3.2591,3.2602,3.2621,3.2633,3.2642,3.2655,3.267,3.2683,3.2686,3.2691,3.2691,3.2695,3.2689,3.2689,3.2689,3.2686,3.2692,3.2692,3.2699,3.2699,3.2699]}]]